Location: Oshawa
(43.9000°N, 78.8670°W)
Time: 23:34:08
(UTC-05:00)

Altair - Visible Passes

Search period start: 11 December 2017 00:00
Search period end: 21 December 2017 00:00
Orbit: 1501 x 1683 km, 47.2° (Epoch: 11 December)

Date Brightness Start Highest point End Pass type
(mag) Time Alt. Az. Time Alt. Az. Time Alt. Az.
11 Dec 8.2 03:27:10 44° ESE 03:27:10 44° ESE 03:34:36 10° ENE visible
11 Dec 7.4 05:25:13 32° WSW 05:30:14 86° NNW 05:39:28 10° ENE visible
12 Dec 8.5 03:03:44 35° E 03:03:44 35° E 03:09:24 10° ENE visible
12 Dec 7.3 05:01:46 47° WSW 05:05:04 89° NNW 05:14:18 10° ENE visible
12 Dec 7.5 07:00:56 10° W 07:10:14 73° N 07:19:25 10° E visible
13 Dec 8.9 02:40:13 26° E 02:40:13 26° E 02:44:12 10° ENE visible
13 Dec 7.3 04:38:15 66° WSW 04:39:54 88° SSE 04:49:09 10° ENE visible
13 Dec 7.5 06:36:18 12° W 06:45:02 72° N 06:54:13 10° E visible
14 Dec 9.3 02:16:39 19° E 02:16:39 19° E 02:18:59 10° ENE visible
14 Dec 7.3 04:14:41 85° SSE 04:14:45 85° SSE 04:23:59 10° ENE visible
14 Dec 7.5 06:12:43 19° W 06:19:50 72° N 06:29:01 10° E visible
15 Dec 9.6 01:53:01 12° ENE 01:53:01 12° ENE 01:53:45 10° ENE visible
15 Dec 7.6 03:51:03 67° E 03:51:03 67° E 03:58:51 10° ENE visible
15 Dec 7.4 05:49:05 28° W 05:54:38 72° N 06:03:50 10° E visible
16 Dec 8.0 03:27:23 50° ENE 03:27:23 50° ENE 03:33:42 10° ENE visible
16 Dec 7.4 05:25:24 39° WNW 05:29:26 73° N 05:38:39 10° E visible
17 Dec 8.5 03:03:41 36° ENE 03:03:41 36° ENE 03:08:33 10° ENE visible
17 Dec 7.4 05:01:42 53° WNW 05:04:14 73° N 05:13:27 10° E visible
17 Dec 7.5 07:00:06 10° WNW 07:09:26 87° NNE 07:18:39 10° ESE visible
18 Dec 8.9 02:39:57 26° ENE 02:39:57 26° ENE 02:43:24 10° ENE visible
18 Dec 7.3 04:37:58 68° NW 04:39:02 74° N 04:48:16 10° E visible
18 Dec 7.5 06:36:00 14° WNW 06:44:17 84° NNE 06:53:29 10° ESE visible
19 Dec 9.3 02:16:13 19° ENE 02:16:13 19° ENE 02:18:15 10° ENE visible
19 Dec 7.4 04:14:14 74° NNE 04:14:14 74° NNE 04:23:06 10° ENE visible
19 Dec 7.4 06:12:15 21° WNW 06:19:06 82° NNE 06:28:19 10° ESE visible
20 Dec 9.6 01:52:27 13° ENE 01:52:27 13° ENE 01:53:06 10° ENE visible
20 Dec 7.7 03:50:28 61° NE 03:50:28 61° NE 03:57:55 10° ENE visible
20 Dec 7.4 05:48:29 29° WNW 05:53:56 80° NNE 06:03:08 10° ESE visible
